Flag for Syria Weather past 2 weeks in Aleppo, Syria

Now
60 °F

Clear.


Feels Like: 60 °F
Forecast: 56 / 81 °F
Wind: No wind

Location: Iskenderun

Current Time: Apr 26, 2015 at 5:04:12 AM

Latest Report: Apr 26, 2015 at 4:00 AM


Visibility: 13 mi

Pressure: 30.08 "Hg

Humidity: 56%

Dew point: 45 °F

Location of AleppoLocation

Historic Weather in Aleppo — Graph

°F

Aleppo temperature yesterday

Maximum temperature yesterday: 68 °F (at 5:00 PM)
Minimum temperature yesterday: 57 °F (at 6:00 AM)
Average temperature yesterday: 63 °F

Past Weeks' High & Low Weather Summary

 TemperatureHumidityPressure
High73 °F (Apr 16, 3:00 PM)86% (Apr 22, 11:00 PM)30.26 "Hg (Apr 22, 11:00 PM)
Low51 °F (Apr 23, 11:00 PM)22% (Apr 24, 2:00 PM)29.69 "Hg (Apr 21, 5:00 PM)
Average63 °F56%29.99 "Hg
* Reported Apr 11 3:00 AM — Apr 26 3:00 AM, Aleppo, Weather by CustomWeather, © 2015

Note: Actual official high and low records may vary slightly from our data, if they occured in-between our weather recording intervals... More about our weather records

Advertising

Aleppo weather history for previous 24 hours

 ConditionsComfort  
Time TempWeatherWind HumidityBarometerVisibility
3:00 AM
Sun, Apr 26
62 °FClear.1 mph53%30.10 "Hg12 mi
2:00 AM62 °FClear.1 mph53%30.11 "Hg12 mi
1:00 AM63 °FClear.1 mph54%30.13 "Hg12 mi
12:00 AM63 °FClear.1 mph53%30.14 "Hg12 mi
11:00 PM
Sat, Apr 25
63 °FClear.No wind55%30.16 "Hg12 mi
10:00 PM64 °FClear.No wind50%30.16 "Hg12 mi
9:00 PM65 °FOvercast.No wind45%30.15 "Hg12 mi
8:00 PM66 °FOvercast.No wind47%30.15 "Hg12 mi
7:00 PM67 °FPartly sunny.No wind37%30.14 "Hg12 mi
6:00 PM67 °FPartly sunny.2 mph42%30.15 "Hg12 mi
5:00 PM68 °FPassing clouds.2 mph37%30.15 "Hg12 mi
4:00 PM67 °FScattered clouds.2 mph39%30.17 "Hg12 mi
3:00 PM67 °FPassing clouds.5 mph44%30.20 "Hg12 mi
2:00 PM66 °FPassing clouds.3 mph46%30.22 "Hg12 mi
1:00 PM65 °FPassing clouds.5 mph52%30.24 "Hg12 mi
12:00 PM66 °FPassing clouds.7 mph54%30.24 "Hg12 mi
11:00 AM65 °FPassing clouds.6 mph52%30.24 "Hg12 mi
10:00 AM64 °FPassing clouds.5 mph52%30.26 "Hg12 mi
9:00 AM63 °FPassing clouds.2 mph48%30.26 "Hg9 mi
8:00 AM64 °FPassing clouds.1 mph47%30.25 "Hg12 mi
7:00 AM57 °FPassing clouds.1 mph61%30.24 "Hg12 mi
6:00 AM57 °FPassing clouds.3 mph61%30.23 "Hg12 mi
5:00 AM57 °FPassing clouds.2 mph59%30.23 "Hg12 mi
Weather by CustomWeather, © 2015

See weather overviewHow to use our weather pages